Location: Newark
(52.3500°N, 175.9667°E)
Time: 07:25:57
(UTC+00:00)

S-56A Canister/Altair - Pass Details

Date: 20 April 2021
Orbit: 631 x 2501 km, 38.9° (Epoch: 12 May)

Event Time Altitude Azimuth Distance (km) Brightness Sun altitude
Rises 13:47:18 0° 247° (WSW) 3,851 - -22.9°
Reaches altitude 10° 13:51:03 10° 232° (SW) 2,593 - -22.7°
Maximum altitude 13:55:06 19° 188° (S) 1,758 - -22.4°
Drops below altitude 10° 13:58:31 10° 142° (SE) 2,132 - -22.2°
Exits shadow 14:00:04 - 130° (SE) 2,568 10.1 -22.1°
Sets 14:01:14 0° 123° (ESE) 2,951 10.5 -22.0°
